Location: site
(53.0000°N, 23.0500°E)
Time: 22:33:28
(UTC+01:00)

SAOCOM 1-A - Pass Details

Date: 23 January 2020
Orbit: 621 x 623 km, 97.9° (Epoch: 24 February)

Event Time Altitude Azimuth Distance (km) Brightness Sun altitude
Exits shadow 17:25:01 - 24° (NNE) 2,202 ? -13.3°
Reaches altitude 10° 17:25:32 10° 27° (NNE) 2,005 ? -13.4°
Maximum altitude 17:29:40 41° 98° (E) 911 ? -14.0°
Drops below altitude 10° 17:33:46 10° 169° (S) 1,989 ? -14.6°
Sets 17:36:03 0° 176° (S) 2,890 ? -14.9°
